[[[{"header":{"parameterUnit":"kt","parameterCategory":2,"dx":1,"dy":1,"la1":30.253999710083008,"la2":30.299108505249023,"lo1":-89.0895004272461,"lo2":-89.04439544677734,"nx":28,"ny":28,"refTime":"2022-10-11T21:00:00:Z","depth":"0","parameterNumber":2,"parameterNumberName":"U-component_of_CURRENTS"},"data":[0.613,0.6249,0.6259,0.6231,0.6209,0.6043,0.5961,0.5761,0.5664,0.5243,0.4944,0.4905,0.4431,0.3748,0.3109,0.3016,0.2808,0.2559,0.2764,0.3344,0.3456,0.3562,0.3272,0.2506,0.2505,0.1621,0.1614,0.1609,0.6036,0.6123,0.6209,0.6284,0.6256,0.6276,0.6265,0.6147,0.6053,0.6043,0.6027,0.5661,0.5289,0.5016,0.434,0.4,0.3849,0.3845,0.3532,0.3541,0.4401,0.4113,0.3513,0.3513,0.3513,0.3513,0.3514,0.3514,0.5933,0.6012,0.6141,0.6222,0.628,0.6279,0.6258,0.6303,0.6333,0.6299,0.6493,0.6405,0.6164,0.5985,0.5873,0.525,0.5493,0.4998,0.5062,0.4953,0.459,0.5367,0.5284,0.5289,0.5294,0.5298,0.5302,0,0.587,0.5919,0.6026,0.6132,0.621,0.627,0.6348,0.6397,0.6486,0.6558,0.6641,0.6693,0.6737,0.6514,0.6464,0.6411,0.6118,0.6343,0.6131,0.529,0.4893,0.472,0.5768,0.5899,0.5908,0.5915,0.592,0.5924,0.5786,0.5865,0.6,0.6067,0.6102,0.6212,0.6271,0.636,0.6428,0.6605,0.6661,0.6847,0.6886,0.7059,0.6926,0.6964,0.6808,0.6564,0.636,0.5954,0.5894,0.5699,0.5576,0.6023,0.6011,0.6,0.5992,0,0.5748,0.5797,0.5927,0.6029,0.6064,0.6152,0.6245,0.6334,0.6433,0.6559,0.6612,0.6753,0.6915,0.6999,0.725,0.7126,0.6961,0.7174,0.6642,0.6529,0.5974,0.594,0.5855,0.5713,0.705,0.7044,0.7039,0,0.5659,0.5758,0.5817,0.5881,0.6015,0.605,0.6189,0.6253,0.6359,0.6446,0.6513,0.6603,0.6754,0.689,0.6936,0.697,0.7216,0.6884,0.6841,0.6453,0.6382,0.615,0.6093,0.7297,0.7294,0.7292,0.729,0,0.5523,0.5653,0.5763,0.5799,0.5895,0.5957,0.6006,0.61,0.6168,0.6315,0.6372,0.6531,0.6597,0.6771,0.6772,0.6701,0.7066,0.6973,0.6764,0.6737,0.6431,0.6358,0.6369,0.7287,0.7286,0.7285,0.7284,0,0.541,0.5476,0.562,0.5721,0.5753,0.5821,0.5948,0.6018,0.6115,0.6131,0.6204,0.6182,0.6344,0.6222,0.6505,0.6358,0.643,0.6467,0.6478,0.6175,0.5955,0.5812,0.5983,0.5689,0.6464,0.6458,0.6452,0,0.5258,0.5394,0.539,0.5541,0.5617,0.5609,0.5691,0.5756,0.5777,0.586,0.5861,0.5915,0.5799,0.5802,0.5939,0.5986,0.6152,0.5926,0.6181,0.6189,0.5887,0.6128,0.5699,0.591,0.6373,0.6381,0.6387,0,0.5132,0.519,0.5212,0.5257,0.5307,0.5366,0.5457,0.5533,0.56,0.56,0.5692,0.5701,0.5666,0.5664,0.5586,0.5723,0.6004,0.5651,0.5657,0.5772,0.6384,0.6053,0.6074,0.6001,0.6012,0.602,0.6324,0,0.5021,0.5061,0.5112,0.5154,0.5195,0.5277,0.528,0.5326,0.5291,0.5286,0.5363,0.531,0.5327,0.5313,0.5228,0.5457,0.5407,0.5355,0.5299,0.5482,0.5573,0.5623,0.4988,0.4985,0.4983,0.4981,0,0,0.4881,0.4924,0.4891,0.4954,0.4986,0.4944,0.5026,0.5044,0.5039,0.506,0.4987,0.5002,0.4965,0.5056,0.5091,0.5043,0.5113,0.504,0.5346,0.5385,0.5423,0.5523,0.5574,0.4977,0.4976,0.4975,0.4974,0,0.4833,0.4799,0.4853,0.4875,0.4903,0.4895,0.4914,0.4912,0.492,0.494,0.4866,0.4884,0.4847,0.4871,0.4863,0.499,0.5008,0.4972,0.5129,0.5316,0.5359,0.5398,0.5505,0.5552,0.4968,0.4969,0.4969,0,0.4724,0.4709,0.4718,0.4728,0.4733,0.4787,0.4699,0.4762,0.4808,0.4669,0.4713,0.467,0.4632,0.4689,0.471,0.4662,0.4912,0.4759,0.4771,0.4846,0.5039,0.5086,0.5129,0.4594,0.4593,0.4592,0,0,0.4685,0.4703,0.4677,0.471,0.4721,0.469,0.4706,0.4699,0.4678,0.4672,0.4631,0.4603,0.4606,0.4602,0.4612,0.4649,0.4722,0.4716,0.4734,0.4749,0.483,0.5025,0.507,0.4589,0.4589,0.4588,0,0,0.4672,0.4637,0.4596,0.4624,0.4644,0.463,0.4675,0.4633,0.4622,0.4614,0.4532,0.4523,0.4573,0.4536,0.4493,0.4614,0.4537,0.4545,0.464,0.4661,0.4678,0.4777,0.4446,0,0,0,0,0,0.4598,0.4639,0.4601,0.4599,0.4584,0.4636,0.4639,0.4618,0.4559,0.4611,0.4543,0.4517,0.4513,0.4472,0.4469,0.4559,0.4544,0.4552,0.4559,0.4692,0.4715,0.4734,0,0,0,0,0,0,0.4597,0.4592,0.4601,0.458,0.4577,0.4632,0.4549,0.4545,0.4557,0.4552,0.4523,0.4515,0.4479,0.4472,0.4469,0.4557,0.4447,0.4547,0.4554,0.456,0.47,0.4718,0.4735,0,0,0,0,0,0.4596,0.4592,0.4567,0.4581,0.4578,0.4559,0.4548,0.4544,0.4555,0.4512,0.4505,0.4541,0.4481,0.4476,0.447,0.4561,0.4448,0.4447,0.4551,0.4556,0.4561,0.4709,0,0,0,0,0,0,0.4595,0.4593,0.4567,0.4567,0.4567,0.4558,0.4553,0.4543,0.4513,0.4507,0.4525,0.4521,0.4482,0.4478,0.4475,0.4566,0.4449,0.4448,0.4448,0.4555,0.4559,0.4563,0,0,0,0,0,0,0.4595,0.4593,0.4567,0.455,0.4548,0.4558,0.4553,0.455,0.4511,0.4527,0.4524,0.4524,0.4477,0.448,0.4477,0.4473,0.445,0.4449,0.4449,0.4449,0.4559,0.4562,0,0,0,0,0,0,0.4594,0.4592,0.455,0.4548,0.4546,0.4539,0.4553,0.4532,0.4518,0.4528,0.4514,0.4512,0.4479,0.4476,0.4479,0.4477,0.4474,0.445,0.445,0.4449,0.4449,0,0,0,0,0,0,0,0.4594,0.4605,0.457,0.4547,0.4545,0.4563,0.4562,0.4562,0.4518,0.4516,0.4514,0.4513,0.4455,0.4454,0.4453,0.448,0,0,0.445,0.445,0,0,0,0,0,0,0,0,0.4606,0.4606,0.457,0.457,0.457,0.4563,0.4562,0.4562,0.4517,0.4516,0.4515,0.4514,0.4455,0.4454,0.4453,0,0,0,0,0,0,0,0,0,0,0,0,0,0,0,0.457,0.457,0,0.4563,0.4562,0.4562,0.4517,0.4516,0.4515,0.4514,0.4454,0.4454,0.4453,0,0,0,0,0,0,0,0,0,0,0,0,0,0,0,0,0,0,0,0,0,0,0,0,0,0,0,0,0,0,0,0,0,0,0,0,0,0,0,0,0,0,0,0,0,0,0,0,0,0,0,0,0,0,0,0,0,0,0,0,0,0,0,0,0,0,0,0,0]}],[{"header":{"parameterUnit":"kt","parameterCategory":2,"dx":1,"dy":1,"la1":30.253999710083008,"la2":30.299108505249023,"lo1":-89.0895004272461,"lo2":-89.04439544677734,"nx":28,"ny":28,"refTime":"2022-10-11T21:00:00:Z","depth":"0","parameterNumber":3,"parameterNumberName":"V-component_of_CURRENTS"},"data":[0.1589,0.1673,0.1725,0.1956,0.2104,0.2357,0.2548,0.288,0.3221,0.3681,0.3931,0.4124,0.3602,0.2178,0.1241,0.1041,0.0804,0.0753,0.065,0.0929,0.0975,0.1018,0.0957,0.0579,0.0578,0.029,0.0286,0.0284,0.158,0.1645,0.1773,0.1944,0.2105,0.2191,0.25,0.2708,0.3102,0.3527,0.3874,0.3906,0.3457,0.2921,0.196,0.1505,0.1383,0.1266,0.1267,0.1237,0.1653,0.1611,0.1366,0.1366,0.1366,0.1366,0.1367,0.1367,0.1545,0.1623,0.1731,0.1868,0.2018,0.2218,0.2392,0.2642,0.2961,0.3402,0.3606,0.3973,0.3642,0.3138,0.2792,0.2038,0.2132,0.1789,0.1731,0.1747,0.1633,0.1945,0.1948,0.1949,0.1949,0.1949,0.195,0,0.1495,0.1542,0.1672,0.1813,0.1944,0.2128,0.2331,0.2476,0.2772,0.3037,0.3428,0.3638,0.3593,0.3426,0.2995,0.2737,0.2317,0.2366,0.2175,0.1936,0.1777,0.1631,0.2094,0.2265,0.2268,0.2269,0.2271,0.2271,0.1382,0.1478,0.1676,0.1758,0.1851,0.2037,0.2168,0.2368,0.2535,0.294,0.3086,0.3299,0.3489,0.3389,0.3077,0.2786,0.2599,0.2439,0.2327,0.1997,0.1842,0.1808,0.1729,0.2296,0.2293,0.229,0.2288,0,0.1315,0.1412,0.1595,0.1795,0.1853,0.1991,0.2205,0.2358,0.2539,0.2803,0.2883,0.3116,0.323,0.3125,0.3135,0.2888,0.2663,0.2657,0.251,0.2428,0.1949,0.1854,0.193,0.1844,0.2392,0.2389,0.2386,0,0.126,0.139,0.1542,0.1634,0.1827,0.1934,0.2144,0.2264,0.2459,0.265,0.2713,0.2899,0.2914,0.2966,0.2803,0.2689,0.2865,0.2459,0.239,0.2349,0.2318,0.2147,0.2043,0.2723,0.2723,0.2723,0.2724,0,0.1162,0.135,0.1513,0.1571,0.1759,0.1864,0.1962,0.2124,0.2236,0.244,0.2545,0.2684,0.277,0.2773,0.2645,0.2574,0.2738,0.2622,0.2357,0.2333,0.2324,0.2288,0.235,0.2724,0.2724,0.2724,0.2724,0,0.1118,0.123,0.141,0.1599,0.1645,0.1723,0.193,0.2017,0.2175,0.2217,0.2331,0.2321,0.2466,0.2312,0.2433,0.2373,0.2276,0.2231,0.2229,0.208,0.1862,0.1822,0.1994,0.1786,0.2024,0.202,0.2017,0,0.103,0.1197,0.1245,0.1402,0.1493,0.1533,0.1638,0.1723,0.1766,0.1885,0.1907,0.1993,0.1855,0.1888,0.1982,0.198,0.203,0.1927,0.1963,0.1962,0.1823,0.2013,0.1978,0.1942,0.197,0.1975,0.1979,0,0.0944,0.1083,0.1098,0.118,0.1251,0.1299,0.1395,0.15,0.1603,0.1576,0.1733,0.173,0.1716,0.1731,0.1671,0.177,0.1923,0.1677,0.168,0.1663,0.2121,0.1955,0.1968,0.1961,0.197,0.1977,0.1941,0,0.0929,0.0998,0.1035,0.112,0.1158,0.1216,0.1234,0.1268,0.1255,0.1273,0.1369,0.132,0.1383,0.135,0.1294,0.1498,0.1397,0.1385,0.1353,0.1502,0.144,0.147,0.1075,0.1072,0.107,0.1068,0,0,0.0833,0.0918,0.0915,0.0979,0.1024,0.0985,0.1062,0.1067,0.1058,0.1109,0.1024,0.1086,0.1039,0.1175,0.1195,0.1133,0.1142,0.1147,0.1382,0.1417,0.1449,0.1404,0.1435,0.1064,0.1063,0.1062,0.1061,0,0.083,0.0845,0.0901,0.0926,0.0953,0.0959,0.0969,0.0971,0.098,0.0996,0.0963,0.0987,0.0944,0.0988,0.0997,0.1086,0.1057,0.1048,0.1214,0.1355,0.1393,0.1426,0.1389,0.1419,0.1056,0.1056,0.1056,0,0.0783,0.0811,0.0831,0.0868,0.0877,0.0923,0.0872,0.0896,0.0941,0.0848,0.088,0.0847,0.0828,0.0864,0.0871,0.0837,0.0984,0.0889,0.0901,0.0981,0.1126,0.1167,0.1204,0.0745,0.0745,0.0744,0,0,0.0779,0.0823,0.0833,0.0865,0.0875,0.0869,0.0874,0.0871,0.0862,0.0857,0.0823,0.0803,0.0814,0.0808,0.0797,0.0816,0.0843,0.0857,0.0871,0.0884,0.0969,0.1117,0.1155,0.0742,0.0742,0.0742,0,0,0.0768,0.0804,0.08,0.0839,0.0849,0.0849,0.0864,0.085,0.084,0.0837,0.0788,0.0778,0.0799,0.076,0.0737,0.0801,0.0734,0.0738,0.0843,0.086,0.0874,0.0985,0.0696,0,0,0,0,0,0.0771,0.0804,0.08,0.0806,0.0832,0.0853,0.0854,0.0843,0.0824,0.084,0.0808,0.0778,0.075,0.0728,0.072,0.0784,0.0715,0.072,0.0725,0.0863,0.0882,0.0898,0,0,0,0,0,0,0.0773,0.0782,0.0798,0.0803,0.0807,0.0852,0.0822,0.0819,0.0823,0.0821,0.0786,0.0777,0.0748,0.0729,0.0722,0.0786,0.0698,0.0717,0.0721,0.0725,0.087,0.0885,0.0898,0,0,0,0,0,0.0775,0.0782,0.0832,0.0801,0.0805,0.0797,0.0821,0.0819,0.0823,0.0783,0.0776,0.0814,0.075,0.0741,0.0725,0.0791,0.0702,0.07,0.072,0.0723,0.0726,0.0877,0,0,0,0,0,0,0.0776,0.0776,0.0831,0.0831,0.0792,0.0794,0.0797,0.0818,0.0784,0.0778,0.0808,0.0806,0.0751,0.0744,0.0738,0.0797,0.0705,0.0703,0.0702,0.0722,0.0725,0.0727,0,0,0,0,0,0,0.0772,0.0777,0.0831,0.0821,0.082,0.0792,0.0794,0.0774,0.0782,0.081,0.0809,0.0807,0.0743,0.0746,0.0741,0.0711,0.0708,0.0706,0.0704,0.0703,0.0724,0.0726,0,0,0,0,0,0,0.0773,0.0777,0.0821,0.082,0.0819,0.0816,0.077,0.0788,0.0806,0.0811,0.0803,0.0802,0.0744,0.074,0.0743,0.0715,0.0712,0.0708,0.0706,0.0705,0.0705,0,0,0,0,0,0,0,0.0774,0.0757,0.0832,0.0819,0.0818,0.0829,0.0829,0.0829,0.0806,0.0805,0.0804,0.0803,0.072,0.0718,0.0716,0.0719,0,0,0.0708,0.0707,0,0,0,0,0,0,0,0,0.0755,0.0757,0.0832,0.0832,0.0832,0.0829,0.0829,0.0829,0.0805,0.0805,0.0804,0.0803,0.072,0.0718,0.0716,0,0,0,0,0,0,0,0,0,0,0,0,0,0,0,0.0832,0.0832,0,0.0829,0.0829,0.0829,0.0805,0.0805,0.0804,0.0803,0.0719,0.0718,0.0716,0,0,0,0,0,0,0,0,0,0,0,0,0,0,0,0,0,0,0,0,0,0,0,0,0,0,0,0,0,0,0,0,0,0,0,0,0,0,0,0,0,0,0,0,0,0,0,0,0,0,0,0,0,0,0,0,0,0,0,0,0,0,0,0,0,0,0,0,0]}]],[[{"header":{"parameterUnit":"kt","parameterCategory":2,"dx":1,"dy":1,"la1":30.253999710083008,"la2":30.299108505249023,"lo1":-89.0895004272461,"lo2":-89.04439544677734,"nx":28,"ny":28,"refTime":"2022-10-11T21:00:00:Z","depth":"2","parameterNumber":2,"parameterNumberName":"U-component_of_CURRENTS"},"data":[0.3239,0.3179,0.3132,0.3123,0.3199,0.3177,0.3204,0.3197,0.3146,0.2884,0.2755,0.298,0.3013,0.2425,0.23,0.2067,0.2392,0.1968,0.3065,0.3162,0.324,0.3435,0.3169,0,0,0,0,0,0.3275,0.3275,0.3253,0.3257,0.33,0.3394,0.3431,0.3425,0.3463,0.3483,0.3548,0.3106,0.303,0.3152,0.2815,0.2725,0.2735,0.2628,0.2632,0.2724,0.2806,0.2568,0.1906,0.1902,0.1898,0.1895,0,0,0.3369,0.3353,0.3397,0.3358,0.3428,0.3439,0.3462,0.3564,0.364,0.3814,0.3946,0.398,0.4018,0.3844,0.3729,0.3625,0.3947,0.3748,0.3782,0.3827,0.3639,0.3442,0.3261,0.3266,0.3271,0.3275,0.3279,0,0.3414,0.3455,0.349,0.3468,0.353,0.3563,0.3697,0.3731,0.3982,0.4073,0.424,0.4368,0.4557,0.4398,0.4431,0.4403,0.4508,0.4331,0.5101,0.4116,0.3925,0.3862,0.3879,0.3873,0.3882,0.3889,0.3894,0.3898,0.3474,0.3477,0.3557,0.3557,0.3624,0.3724,0.3766,0.3962,0.4048,0.434,0.4413,0.4673,0.4784,0.498,0.4932,0.4989,0.5183,0.4553,0.4399,0.4912,0.485,0.4831,0.4812,0.3997,0.3985,0.3974,0.3966,0,0.3502,0.3532,0.3569,0.3668,0.3707,0.378,0.3931,0.4014,0.4187,0.4343,0.4425,0.4661,0.4876,0.5051,0.5283,0.5207,0.5287,0.5236,0.4725,0.4618,0.4868,0.4839,0.5044,0.5036,0.5029,0.5024,0.5019,0,0.3525,0.3567,0.36,0.3636,0.3717,0.3793,0.3934,0.4048,0.4207,0.4339,0.4523,0.4616,0.4873,0.5037,0.5112,0.5154,0.5359,0.5068,0.5025,0.4651,0.4587,0.5132,0.5097,0.5426,0.5424,0.5423,0.5423,0,0.3483,0.3542,0.3579,0.3603,0.368,0.3769,0.3876,0.4025,0.4107,0.434,0.4401,0.4666,0.4767,0.4942,0.5024,0.4987,0.5269,0.5205,0.4993,0.4969,0.4625,0.4557,0.5421,0.5421,0.5421,0.542,0.542,0,0.3482,0.3469,0.3511,0.3589,0.3607,0.3706,0.3844,0.3947,0.4154,0.4201,0.4381,0.4457,0.4677,0.4597,0.4878,0.4795,0.4841,0.4869,0.4874,0.4592,0.4424,0.4169,0.4246,0.4821,0.4817,0.4812,0.4809,0,0.3445,0.3447,0.3457,0.3553,0.355,0.3617,0.3701,0.3826,0.3915,0.4045,0.4172,0.4293,0.4287,0.4319,0.4459,0.4524,0.4642,0.4498,0.4641,0.4644,0.44,0.4561,0.4135,0.4207,0.4756,0.4762,0.4766,0,0.3388,0.3377,0.3392,0.3421,0.346,0.3493,0.3587,0.3717,0.3815,0.3889,0.4021,0.4145,0.4172,0.4217,0.4215,0.4328,0.4537,0.4288,0.4291,0.4358,0.4803,0.4518,0.4525,0.4568,0.4576,0.4582,0.4724,0,0.3354,0.3362,0.336,0.3385,0.3402,0.345,0.3497,0.3549,0.3588,0.3661,0.3804,0.3802,0.3896,0.3918,0.3906,0.4126,0.4081,0.4052,0.4014,0.4148,0.4175,0.4208,0.377,0.3767,0.3765,0.3763,0,0,0.3329,0.3327,0.3285,0.329,0.3314,0.335,0.3386,0.3432,0.3456,0.3515,0.3462,0.3598,0.3612,0.3781,0.3811,0.3784,0.3832,0.3818,0.404,0.4071,0.41,0.4136,0.4171,0.3758,0.3758,0.3757,0.3756,0,0.3309,0.3284,0.3271,0.3287,0.3303,0.3321,0.3345,0.3343,0.3367,0.3425,0.3422,0.3487,0.3534,0.3589,0.363,0.3736,0.3772,0.3749,0.3876,0.4014,0.4048,0.4078,0.412,0.4153,0.375,0.375,0.3751,0,0.3292,0.3268,0.3263,0.3255,0.3255,0.3287,0.3254,0.3276,0.3336,0.3286,0.3337,0.3354,0.3388,0.3466,0.3506,0.3469,0.3697,0.3593,0.3604,0.3651,0.3792,0.3829,0.3862,0.345,0.345,0.3449,0,0,0.3274,0.3252,0.325,0.3252,0.3248,0.3254,0.3258,0.3266,0.3268,0.327,0.3278,0.3297,0.3361,0.3388,0.3417,0.3485,0.3521,0.3562,0.3576,0.3588,0.3641,0.3784,0.3818,0.3448,0.3448,0.3448,0,0,0.3272,0.3236,0.3247,0.3222,0.325,0.3229,0.3225,0.3239,0.3245,0.3245,0.3247,0.3253,0.3342,0.3324,0.3297,0.344,0.3372,0.3378,0.3479,0.3496,0.351,0.3571,0.3295,0,0,0,0,0,0.3262,0.3241,0.3252,0.3248,0.3219,0.3232,0.3229,0.3212,0.3209,0.3226,0.322,0.3238,0.3298,0.3274,0.3286,0.3396,0.3427,0.343,0.3434,0.358,0.3598,0.3613,0,0,0,0,0,0,0.326,0.3255,0.3252,0.3229,0.3223,0.323,0.3191,0.3186,0.3207,0.3205,0.3231,0.3237,0.3227,0.327,0.328,0.3386,0.3291,0.3428,0.3431,0.3434,0.3586,0.3601,0.3614,0,0,0,0,0,0.3259,0.3255,0.3211,0.3229,0.3224,0.3205,0.3191,0.3187,0.3204,0.3206,0.3211,0.3199,0.3226,0.3238,0.3276,0.3383,0.3285,0.3288,0.343,0.3433,0.3435,0.3593,0,0,0,0,0,0,0.3258,0.3242,0.3209,0.3208,0.3232,0.3205,0.32,0.3187,0.3205,0.3208,0.3172,0.3171,0.3226,0.3235,0.3243,0.3383,0.3279,0.3283,0.3285,0.3432,0.3434,0.3436,0,0,0,0,0,0,0.3245,0.3241,0.3208,0.3212,0.321,0.3206,0.3201,0.324,0.3209,0.317,0.3169,0.3172,0.3247,0.3233,0.324,0.3297,0.3275,0.3279,0.3281,0.3283,0.3434,0.3435,0,0,0,0,0,0,0.3243,0.3239,0.3212,0.3211,0.3209,0.3183,0.3243,0.3231,0.3157,0.3171,0.3157,0.3157,0.3248,0.3252,0.3237,0.3292,0.3296,0.3275,0.3277,0.3279,0.328,0,0,0,0,0,0,0,0.3241,0.327,0.3227,0.3209,0.3208,0.3192,0.3191,0.319,0.3157,0.3157,0.3157,0.3157,0.3255,0.3259,0.3263,0.3287,0,0,0.3275,0.3276,0,0,0,0,0,0,0,0,0.3271,0.327,0.3227,0.3227,0.3227,0.3192,0.3191,0.319,0.3157,0.3157,0.3157,0.3157,0.3256,0.3259,0.3262,0,0,0,0,0,0,0,0,0,0,0,0,0,0,0,0.3227,0.3227,0,0.3192,0.3191,0.319,0.3157,0.3157,0.3157,0.3157,0.3257,0.3259,0.3262,0,0,0,0,0,0,0,0,0,0,0,0,0,0,0,0,0,0,0,0,0,0,0,0,0,0,0,0,0,0,0,0,0,0,0,0,0,0,0,0,0,0,0,0,0,0,0,0,0,0,0,0,0,0,0,0,0,0,0,0,0,0,0,0,0,0,0,0,0]}],[{"header":{"parameterUnit":"kt","parameterCategory":2,"dx":1,"dy":1,"la1":30.253999710083008,"la2":30.299108505249023,"lo1":-89.0895004272461,"lo2":-89.04439544677734,"nx":28,"ny":28,"refTime":"2022-10-11T21:00:00:Z","depth":"2","parameterNumber":3,"parameterNumberName":"V-component_of_CURRENTS"},"data":[0.06,0.0775,0.0885,0.1211,0.1343,0.1592,0.1768,0.2031,0.222,0.2481,0.2514,0.2503,0.1932,0.1435,0.0941,0.0598,0.0539,0.0508,0.0606,0.0746,0.0761,0.0427,0.0435,0,0,0,0,0,0.0553,0.0663,0.0802,0.1025,0.1181,0.1222,0.1519,0.1704,0.2071,0.2319,0.2523,0.2143,0.1859,0.1426,0.077,0.0376,0.0347,0.0248,0.0309,0.032,0.0329,0.0326,0.0225,0.0224,0.0223,0.0222,0,0,0.0464,0.0545,0.067,0.084,0.0955,0.1173,0.1331,0.1545,0.1818,0.2153,0.2179,0.2271,0.188,0.1353,0.1004,0.0562,0.0575,0.0379,0.0385,0.0392,0.0389,0.0353,0.0307,0.0307,0.0307,0.0307,0.0307,0,0.0424,0.0464,0.0559,0.0711,0.0824,0.0973,0.1139,0.1262,0.1438,0.1619,0.1877,0.1949,0.1736,0.1502,0.1069,0.0869,0.061,0.0528,0.061,0.0524,0.0489,0.0454,0.0454,0.0472,0.0473,0.0474,0.0474,0.0475,0.0377,0.043,0.0567,0.0644,0.0698,0.0817,0.0909,0.0995,0.112,0.1332,0.1454,0.1479,0.1574,0.1382,0.1073,0.0816,0.078,0.0564,0.0488,0.0507,0.047,0.0468,0.0466,0.0485,0.0484,0.0482,0.0482,0,0.0354,0.0408,0.0511,0.0619,0.0661,0.0739,0.0869,0.0948,0.1008,0.1177,0.1205,0.1242,0.1271,0.113,0.1039,0.0866,0.0754,0.0668,0.0656,0.062,0.048,0.0475,0.0498,0.0495,0.0493,0.0492,0.049,0,0.0337,0.0402,0.0495,0.0539,0.0645,0.0682,0.0781,0.0814,0.0889,0.1023,0.0958,0.107,0.0976,0.0973,0.0855,0.077,0.0838,0.0602,0.0567,0.057,0.0561,0.0604,0.0594,0.0686,0.0686,0.0687,0.0687,0,0.0288,0.039,0.0468,0.0497,0.0578,0.0623,0.0664,0.0708,0.077,0.0808,0.0861,0.0883,0.093,0.087,0.08,0.0767,0.0791,0.0729,0.0571,0.0563,0.0551,0.0539,0.0687,0.0687,0.0688,0.0688,0.0688,0,0.0262,0.0324,0.041,0.0502,0.0522,0.0554,0.0621,0.0655,0.0699,0.0711,0.075,0.0731,0.0789,0.0709,0.0734,0.0731,0.0646,0.0606,0.0604,0.0527,0.0449,0.0423,0.0471,0.0519,0.0518,0.0517,0.0517,0,0.0212,0.0303,0.0325,0.0399,0.0446,0.0449,0.0485,0.0517,0.0522,0.0565,0.0574,0.0605,0.0565,0.0575,0.0594,0.0581,0.0566,0.0552,0.0506,0.0504,0.0445,0.0499,0.0501,0.0463,0.0508,0.0509,0.0509,0,0.0172,0.0249,0.0258,0.0304,0.0328,0.0352,0.0377,0.0419,0.0459,0.0453,0.0514,0.0513,0.0511,0.0514,0.0496,0.0512,0.0541,0.0468,0.0467,0.0453,0.0559,0.0491,0.049,0.0539,0.0541,0.0543,0.0502,0,0.0177,0.0214,0.023,0.0275,0.0288,0.0312,0.0321,0.0331,0.0326,0.034,0.0379,0.0358,0.0382,0.0368,0.0351,0.0411,0.0375,0.0358,0.0342,0.0393,0.0361,0.0368,0.0276,0.0275,0.0274,0.0273,0,0,0.0132,0.0182,0.0185,0.0221,0.0241,0.0221,0.0255,0.0256,0.026,0.0285,0.0251,0.0274,0.025,0.0305,0.0314,0.029,0.0282,0.0298,0.0358,0.0367,0.0376,0.035,0.0357,0.0271,0.027,0.027,0.0269,0,0.0142,0.0152,0.018,0.0195,0.0214,0.0212,0.0219,0.0223,0.0229,0.0241,0.0228,0.0236,0.022,0.0233,0.0234,0.0272,0.0241,0.0256,0.0327,0.0346,0.0358,0.0367,0.0344,0.0351,0.0267,0.0267,0.0267,0,0.0129,0.0151,0.0159,0.0185,0.0187,0.0206,0.0189,0.0197,0.0216,0.0183,0.0198,0.0183,0.0172,0.0186,0.0187,0.0176,0.0212,0.019,0.0196,0.0218,0.0237,0.025,0.0261,0.0122,0.0122,0.0122,0,0,0.0137,0.0159,0.0172,0.0185,0.0191,0.019,0.0191,0.019,0.0189,0.0187,0.0175,0.0165,0.0166,0.0166,0.0154,0.0167,0.0159,0.0175,0.0182,0.0188,0.0213,0.0234,0.0246,0.0121,0.0121,0.0121,0,0,0.0132,0.016,0.0162,0.018,0.0186,0.0185,0.0186,0.0184,0.0181,0.0178,0.0159,0.0155,0.0161,0.0144,0.0137,0.0151,0.012,0.0121,0.0173,0.0181,0.0188,0.0222,0.0105,0,0,0,0,0,0.0147,0.016,0.0162,0.0166,0.0179,0.0188,0.0187,0.0179,0.0173,0.0176,0.0169,0.0147,0.0139,0.0131,0.0127,0.0146,0.011,0.0112,0.0114,0.0182,0.0191,0.0198,0,0,0,0,0,0,0.0149,0.0154,0.0162,0.0164,0.0167,0.0187,0.0173,0.017,0.0172,0.017,0.015,0.0146,0.013,0.0131,0.0128,0.0147,0.0106,0.0111,0.0112,0.0114,0.0185,0.0192,0.0198,0,0,0,0,0,0.015,0.0155,0.0181,0.0163,0.0165,0.0159,0.0172,0.017,0.0169,0.015,0.0146,0.0164,0.013,0.0126,0.0129,0.0149,0.0108,0.0107,0.0112,0.0113,0.0114,0.0189,0,0,0,0,0,0,0.0151,0.0145,0.018,0.018,0.016,0.0157,0.0158,0.017,0.0148,0.0145,0.0163,0.0161,0.0131,0.0128,0.0125,0.0152,0.011,0.0109,0.0108,0.0113,0.0114,0.0115,0,0,0,0,0,0,0.0143,0.0145,0.018,0.0177,0.0176,0.0156,0.0157,0.0147,0.0147,0.0161,0.016,0.0162,0.0132,0.0129,0.0126,0.0111,0.0111,0.011,0.0109,0.0109,0.0114,0.0114,0,0,0,0,0,0,0.0143,0.0145,0.0177,0.0176,0.0176,0.0169,0.0145,0.0155,0.0156,0.0161,0.0156,0.0155,0.0133,0.0131,0.0127,0.0113,0.0112,0.0111,0.011,0.011,0.011,0,0,0,0,0,0,0,0.0143,0.0137,0.0185,0.0176,0.0175,0.0177,0.0177,0.0177,0.0156,0.0156,0.0156,0.0155,0.0117,0.0116,0.0115,0.0115,0,0,0.0111,0.0111,0,0,0,0,0,0,0,0,0.0135,0.0137,0.0185,0.0185,0.0185,0.0177,0.0177,0.0177,0.0156,0.0156,0.0156,0.0155,0.0117,0.0116,0.0115,0,0,0,0,0,0,0,0,0,0,0,0,0,0,0,0.0185,0.0185,0,0.0177,0.0177,0.0177,0.0156,0.0156,0.0156,0.0156,0.0117,0.0116,0.0115,0,0,0,0,0,0,0,0,0,0,0,0,0,0,0,0,0,0,0,0,0,0,0,0,0,0,0,0,0,0,0,0,0,0,0,0,0,0,0,0,0,0,0,0,0,0,0,0,0,0,0,0,0,0,0,0,0,0,0,0,0,0,0,0,0,0,0,0,0]}]],[[{"header":{"parameterUnit":"kt","parameterCategory":2,"dx":1,"dy":1,"la1":30.253999710083008,"la2":30.299108505249023,"lo1":-89.0895004272461,"lo2":-89.04439544677734,"nx":28,"ny":28,"refTime":"2022-10-11T21:00:00:Z","depth":"4","parameterNumber":2,"parameterNumberName":"U-component_of_CURRENTS"},"data":[0.0625,0.0574,0.054,0.0477,0.0481,0.0572,0.0704,0.0908,0.0973,0.127,0.1394,0.1603,0.1817,0.1958,0.2037,0.2076,0.2025,0.2433,0.2426,0.2464,0.2483,0.25,0.2443,0,0,0,0,0,0.0712,0.0639,0.0618,0.0651,0.0715,0.0801,0.099,0.1112,0.1387,0.1454,0.1621,0.1798,0.1974,0.212,0.2101,0.2302,0.2414,0.2259,0.2273,0.2476,0.2497,0.2434,0,0,0,0,0,0,0.0835,0.0786,0.0831,0.0864,0.0938,0.1004,0.11,0.123,0.1356,0.1722,0.1778,0.2081,0.2324,0.2379,0.2464,0.2498,0.2431,0.2303,0.2332,0.2354,0.2274,0.2116,0.1986,0,0,0,0,0,0.0976,0.1032,0.1027,0.1096,0.116,0.1216,0.1345,0.1389,0.1649,0.1842,0.2028,0.2152,0.2347,0.2501,0.2586,0.2622,0.2778,0.2713,0.2722,0.2653,0.256,0.2523,0.2523,0.2578,0.2581,0.2582,0.2584,0,0.1164,0.116,0.1266,0.1285,0.1328,0.1423,0.1489,0.1694,0.1763,0.207,0.2118,0.2372,0.2528,0.2616,0.2793,0.2852,0.2825,0.277,0.2698,0.2594,0.2552,0.2547,0.254,0.2601,0.2599,0.2598,0.2597,0,0.1255,0.1329,0.1332,0.1443,0.1499,0.1536,0.169,0.1745,0.195,0.2087,0.216,0.242,0.261,0.2775,0.294,0.2879,0.2916,0.2867,0.2992,0.2958,0.2579,0.2565,0.2629,0.2623,0.2617,0.2613,0.2609,0,0.1393,0.1399,0.1493,0.1488,0.1545,0.1644,0.1733,0.1838,0.2007,0.2109,0.2303,0.2412,0.265,0.2786,0.2842,0.2871,0.3012,0.2783,0.2746,0.289,0.2876,0.2867,0.2849,0.303,0.303,0.303,0.303,0,0.1454,0.1492,0.1512,0.1529,0.1605,0.1663,0.1742,0.1896,0.1973,0.217,0.225,0.2464,0.259,0.27,0.2818,0.2793,0.2982,0.2929,0.2749,0.2731,0.286,0.2842,0.303,0.303,0.303,0.303,0.303,0,0.1509,0.1518,0.1538,0.1591,0.161,0.1653,0.1785,0.1858,0.2027,0.2111,0.2277,0.2367,0.2552,0.2548,0.2751,0.2719,0.2737,0.2762,0.2762,0.2566,0.246,0.2546,0.2683,0.268,0.2678,0.2676,0.2675,0,0.1548,0.1544,0.1567,0.1595,0.1604,0.1685,0.1757,0.1852,0.1948,0.2051,0.2189,0.2302,0.2356,0.2421,0.2524,0.2595,0.2646,0.2587,0.2623,0.2622,0.2447,0.2537,0.2649,0.2646,0.265,0.2652,0.2654,0,0.1557,0.1566,0.1572,0.1587,0.1653,0.1663,0.1748,0.1834,0.1903,0.2002,0.2106,0.2243,0.2313,0.2352,0.2394,0.247,0.259,0.2459,0.246,0.2455,0.2717,0.2522,0.2519,0.2626,0.2631,0.2634,0.2634,0,0.158,0.1588,0.1587,0.1608,0.164,0.1662,0.1716,0.177,0.1837,0.189,0.2031,0.2086,0.2179,0.2207,0.2219,0.2365,0.2323,0.2318,0.2278,0.237,0.2346,0.2362,0.2146,0.2144,0.2142,0.2141,0,0,0.161,0.159,0.1599,0.1603,0.1627,0.1673,0.1691,0.1732,0.1777,0.183,0.1834,0.1981,0.201,0.2125,0.2163,0.2153,0.2167,0.2162,0.2305,0.2323,0.234,0.2325,0.2342,0.2138,0.2137,0.2137,0.2136,0,0.1593,0.1609,0.1596,0.1613,0.1641,0.1656,0.1675,0.17,0.1744,0.18,0.1833,0.1913,0.196,0.2009,0.2038,0.2122,0.2122,0.2136,0.221,0.2288,0.2309,0.2327,0.2316,0.2332,0.2132,0.2133,0.2133,0,0.1608,0.1602,0.1596,0.1601,0.1619,0.1632,0.1643,0.167,0.1705,0.171,0.1778,0.1821,0.1851,0.1918,0.1953,0.1922,0.2062,0.201,0.2018,0.2041,0.212,0.2143,0.2163,0.1908,0.1907,0.1907,0,0,0.1607,0.1596,0.1598,0.1597,0.1608,0.1631,0.1644,0.1663,0.1685,0.1707,0.1737,0.1776,0.1829,0.1854,0.1886,0.1935,0.1941,0.1985,0.1996,0.2005,0.2032,0.2113,0.2135,0.1905,0.1905,0.1905,0,0,0.1601,0.1581,0.1602,0.159,0.1609,0.1604,0.1622,0.1646,0.1688,0.1708,0.1725,0.1734,0.1815,0.1804,0.1779,0.189,0.1842,0.1847,0.1909,0.1922,0.1932,0.1961,0.1771,0,0,0,0,0,0.1588,0.1578,0.1596,0.1595,0.1595,0.1596,0.1599,0.1622,0.165,0.167,0.1704,0.171,0.1792,0.1769,0.1777,0.1847,0.1883,0.1887,0.189,0.1982,0.1996,0.2007,0,0,0,0,0,0,0.1588,0.1584,0.1596,0.1586,0.1587,0.1595,0.1602,0.1608,0.1648,0.1654,0.1702,0.1709,0.1711,0.1766,0.1773,0.184,0.1769,0.1884,0.1888,0.1891,0.1987,0.1998,0.2008,0,0,0,0,0,0.1587,0.1584,0.1576,0.1587,0.1588,0.1612,0.1603,0.1608,0.1654,0.1661,0.1671,0.1676,0.1709,0.1718,0.177,0.1838,0.1764,0.1767,0.1886,0.1889,0.1891,0.1992,0,0,0,0,0,0,0.1587,0.1596,0.1577,0.1579,0.1597,0.1614,0.1617,0.1608,0.1661,0.1669,0.1631,0.1634,0.1708,0.1715,0.1722,0.1838,0.176,0.1763,0.1764,0.1888,0.1891,0.1892,0,0,0,0,0,0,0.1598,0.1597,0.1578,0.1588,0.1591,0.1616,0.1618,0.1641,0.1663,0.163,0.1633,0.1632,0.1708,0.1713,0.1719,0.1752,0.1757,0.176,0.1761,0.1762,0.189,0.1892,0,0,0,0,0,0,0.1598,0.1598,0.1588,0.1591,0.1593,0.1615,0.1639,0.1646,0.1644,0.1628,0.1647,0.1649,0.1705,0.1711,0.1716,0.1747,0.1751,0.1757,0.1759,0.176,0.1761,0,0,0,0,0,0,0,0.1599,0.1592,0.1565,0.1592,0.1595,0.1593,0.1593,0.1594,0.1645,0.1646,0.1647,0.1648,0.1743,0.1746,0.1749,0.1742,0,0,0.1757,0.1758,0,0,0,0,0,0,0,0,0.1593,0.1592,0.1565,0.1565,0.1565,0.1593,0.1593,0.1594,0.1645,0.1646,0.1647,0.1648,0.1744,0.1746,0.1748,0,0,0,0,0,0,0,0,0,0,0,0,0,0,0,0.1565,0.1565,0,0.1593,0.1593,0.1594,0.1645,0.1646,0.1646,0.1647,0.1744,0.1746,0.1748,0,0,0,0,0,0,0,0,0,0,0,0,0,0,0,0,0,0,0,0,0,0,0,0,0,0,0,0,0,0,0,0,0,0,0,0,0,0,0,0,0,0,0,0,0,0,0,0,0,0,0,0,0,0,0,0,0,0,0,0,0,0,0,0,0,0,0,0,0]}],[{"header":{"parameterUnit":"kt","parameterCategory":2,"dx":1,"dy":1,"la1":30.253999710083008,"la2":30.299108505249023,"lo1":-89.0895004272461,"lo2":-89.04439544677734,"nx":28,"ny":28,"refTime":"2022-10-11T21:00:00:Z","depth":"4","parameterNumber":3,"parameterNumberName":"V-component_of_CURRENTS"},"data":[0.0602,0.0742,0.0797,0.101,0.1126,0.1298,0.1362,0.1374,0.1362,0.1335,0.1169,0.108,0.077,0.0936,0.0457,0.0393,0.0257,-0.0016,-0.002,-0.022,-0.022,-0.022,-0.0152,0,0,0,0,0,0.056,0.0651,0.0784,0.0942,0.1091,0.1172,0.1283,0.132,0.1347,0.1327,0.1291,0.1131,0.0808,0.0657,0.0458,0.0377,0.0077,0.0133,-0.0032,-0.022,-0.022,-0.0154,0,0,0,0,0,0,0.0507,0.0579,0.0704,0.083,0.0979,0.1104,0.1157,0.1239,0.1292,0.1268,0.1247,0.1037,0.0907,0.0588,0.0395,0.0191,0.0115,0.0025,0.0012,0.001,0.0099,0.017,0.0174,0,0,0,0,0,0.0457,0.0503,0.0588,0.0739,0.0852,0.0976,0.1101,0.1152,0.1195,0.1194,0.1142,0.0962,0.0801,0.0529,0.0318,0.0108,-0.0088,-0.0141,-0.0143,-0.0175,-0.0146,-0.0145,-0.0137,-0.0219,-0.0219,-0.0219,-0.0219,0,0.0405,0.0453,0.0574,0.0648,0.0699,0.0812,0.0894,0.0938,0.1008,0.1003,0.1028,0.0898,0.0785,0.0511,0.0285,-0.0001,-0.0045,-0.0139,-0.0172,-0.0145,-0.0146,-0.0137,-0.0128,-0.0219,-0.0219,-0.0219,-0.0219,0,0.0383,0.0419,0.0506,0.0585,0.0619,0.0688,0.0806,0.0862,0.0857,0.0905,0.0896,0.0762,0.0624,0.0425,0.0223,0.0091,-0.0062,-0.0114,-0.0051,-0.0054,-0.0133,-0.0124,-0.0219,-0.0219,-0.0219,-0.0219,-0.0219,0,0.0351,0.0402,0.0471,0.0511,0.0593,0.0608,0.069,0.0682,0.0695,0.0737,0.0614,0.0608,0.0411,0.0309,0.0168,0.0031,0.002,-0.0086,-0.0097,-0.0058,-0.005,-0.0081,-0.0075,-0.0127,-0.0126,-0.0126,-0.0125,0,0.0309,0.0379,0.0439,0.0459,0.0512,0.0541,0.0569,0.0558,0.0587,0.0535,0.0549,0.0424,0.0407,0.027,0.0156,0.0148,0.0016,-0.0002,-0.007,-0.0069,-0.0074,-0.0069,-0.0124,-0.0124,-0.0124,-0.0124,-0.0123,0,0.0277,0.0326,0.039,0.0452,0.0465,0.0495,0.0515,0.0523,0.0481,0.0469,0.0413,0.0366,0.0297,0.0264,0.0134,0.0173,0.0098,0.0049,0.0044,0.0045,0.0057,0.0022,0.0002,0.0004,0.0005,0.0006,0.0007,0,0.0233,0.0306,0.032,0.0378,0.0413,0.0401,0.0409,0.0402,0.0387,0.0376,0.031,0.031,0.026,0.0268,0.0206,0.017,0.0109,0.016,0.0054,0.0051,0.0066,0.0049,0.0122,0.0025,0.0023,0.0021,0.002,0,0.0201,0.0261,0.0269,0.0302,0.0318,0.034,0.0336,0.0336,0.0345,0.0312,0.0307,0.0276,0.0252,0.0242,0.0224,0.0182,0.0135,0.0172,0.017,0.0128,0.0044,0.0068,0.006,0.013,0.0129,0.0127,0.0033,0,0.0196,0.0226,0.0242,0.0278,0.0288,0.0309,0.0303,0.0303,0.0295,0.0284,0.0268,0.0249,0.0235,0.0232,0.0227,0.0194,0.0186,0.0184,0.0164,0.0165,0.0126,0.0116,0.0223,0.0222,0.0222,0.0221,0,0,0.0153,0.0195,0.0202,0.0231,0.0244,0.0231,0.0256,0.0249,0.0255,0.025,0.0248,0.0229,0.022,0.0205,0.0211,0.0216,0.019,0.0204,0.0176,0.0172,0.0167,0.013,0.0121,0.0221,0.0221,0.022,0.022,0,0.0157,0.0167,0.0196,0.0207,0.0223,0.0223,0.0228,0.0234,0.023,0.0241,0.0227,0.0217,0.0221,0.0203,0.0197,0.0213,0.0175,0.0218,0.0216,0.0175,0.0171,0.0167,0.0129,0.0122,0.0219,0.0219,0.0219,0,0.0137,0.0156,0.0166,0.0188,0.0193,0.0208,0.0194,0.0207,0.0213,0.0198,0.0206,0.0198,0.0187,0.0191,0.019,0.0184,0.0159,0.0185,0.0187,0.0169,0.0124,0.0121,0.0117,0.0157,0.0157,0.0157,0,0,0.0138,0.0163,0.017,0.0187,0.0191,0.0192,0.0196,0.0197,0.02,0.0201,0.0194,0.0188,0.0183,0.0181,0.0176,0.0181,0.0147,0.0178,0.0181,0.0183,0.0167,0.0124,0.012,0.0156,0.0156,0.0156,0,0,0.0133,0.0156,0.0155,0.0176,0.0182,0.0185,0.0192,0.0189,0.0193,0.0194,0.0178,0.0176,0.0179,0.0171,0.0166,0.0166,0.0153,0.0154,0.0171,0.0175,0.0177,0.0158,0.0142,0,0,0,0,0,0.0138,0.0155,0.0154,0.0158,0.0175,0.0186,0.0187,0.0185,0.0179,0.0186,0.0184,0.0166,0.0167,0.0163,0.016,0.0159,0.0149,0.015,0.0151,0.0174,0.0178,0.0181,0,0,0,0,0,0,0.014,0.0145,0.0154,0.0159,0.0162,0.0186,0.0174,0.0174,0.0179,0.0178,0.0169,0.0166,0.0156,0.0162,0.016,0.016,0.0142,0.0149,0.0151,0.0152,0.0176,0.0179,0.0181,0,0,0,0,0,0.0141,0.0145,0.0175,0.0158,0.0161,0.0162,0.0174,0.0173,0.0178,0.0165,0.0163,0.0176,0.0156,0.0154,0.0161,0.0161,0.0143,0.0143,0.015,0.0151,0.0152,0.0177,0,0,0,0,0,0,0.0142,0.0143,0.0175,0.0175,0.0154,0.016,0.0162,0.0173,0.0164,0.0163,0.0172,0.0171,0.0157,0.0155,0.0153,0.0162,0.0144,0.0143,0.0143,0.0151,0.0151,0.0152,0,0,0,0,0,0,0.014,0.0143,0.0175,0.0171,0.017,0.0159,0.0161,0.0157,0.0164,0.0171,0.017,0.0171,0.0153,0.0156,0.0154,0.0148,0.0145,0.0144,0.0144,0.0143,0.0151,0.0152,0,0,0,0,0,0,0.0141,0.0144,0.017,0.017,0.017,0.0174,0.0154,0.0168,0.0172,0.0171,0.0171,0.017,0.0154,0.0153,0.0155,0.015,0.0149,0.0145,0.0144,0.0144,0.0144,0,0,0,0,0,0,0,0.0142,0.0129,0.0173,0.017,0.017,0.0179,0.0179,0.0179,0.0171,0.0171,0.0171,0.017,0.0147,0.0147,0.0146,0.0151,0,0,0.0145,0.0144,0,0,0,0,0,0,0,0,0.0128,0.0129,0.0173,0.0173,0.0173,0.0179,0.0179,0.0179,0.0171,0.0171,0.0171,0.017,0.0147,0.0147,0.0146,0,0,0,0,0,0,0,0,0,0,0,0,0,0,0,0.0173,0.0173,0,0.0179,0.0179,0.0179,0.0171,0.0171,0.0171,0.0171,0.0147,0.0147,0.0146,0,0,0,0,0,0,0,0,0,0,0,0,0,0,0,0,0,0,0,0,0,0,0,0,0,0,0,0,0,0,0,0,0,0,0,0,0,0,0,0,0,0,0,0,0,0,0,0,0,0,0,0,0,0,0,0,0,0,0,0,0,0,0,0,0,0,0,0,0]}]]]